RH
22 19 25 23 23 24 24 20 19 17 18 23 18 18 16 32 36 34 31 28 29 29 27 27 27 25 24 24 30 32 34 33 34 34 34 35 33 33 33 33 39 40 50 60
20 28 24 22 22 21 19 20 20 21 19 21 18 20 20 30 33 33 32 30 30 28 25 24 24 24 25 23 27 29 31 34 35 37 37 38 37 35 40 46 49 43 44 56
23 27 23 22 20 22 26 27 27 26 22 14 18 12 31 32 33 36 32 32 28 29 27 27 28 26 26 26 31 33 36 37 36 42 43 45 45 42 40 41 45 49 50 56
25 24 25 22 27 26 23 28 28 27 21 15 17 14 24 28 30 32 25 27 28 30 27 27 27 27 25 30 34 34 38 37 36 39 41 46 48 53 50 49 48 51 49 53
30 28 29 30 30 27 28 28 27 22 24 22 22 23 17 32 34 24 26 29 28 27 28 26 24 28 28 31 36 37 38 38 38 40 42 42 45 44 43 45 50 49 51 58
30 26 30 31 28 29 27 23 17 27 22 21 26 24 11 20 30 28 27 23 24 25 26 26 24 26 29 31 36 39 38 38 38 42 43 47 50 50 51 51 50 46 47 52
27 32 31 29 27 26 25 22 17 16 16 11 27 22 13 26 34 35 32 21 24 24 21 24 26 28 32 36 36 37 38 41 38 40 43 47 51 53 53 51 50 54 52 54
28 19 33 32 32 33 32 26 26 39 18 19 19 23 24 30 26 25 17 19 22 22 20 25 33 33 35 36 36 37 39 41 39 40 46 48 48 45 45 48 52 54 58 61
33 25 33 38 34 30 26 28 33 31 27 36 21 17 15 23 16 17 20 22 25 23 24 25 31 31 32 31 32 34 37 40 39 42 47 45 42 44 45 46 52 55 68 75
43 39 43 39 32 33 32 31 32 26 64 44 15 17 17 27 27 20 22 24 25 25 27 29 31 32 30 31 32 33 34 35 37 43 42 42 41 42 43 45 50 57 68 77
44 45 29 34 20 31 32 35 40 40 35 54 44 24 18 23 21 24 24 26 26 28 30 32 31 31 31 30 30 30 30 30 35 37 40 43 42 44 42 48 54 54 62 69
46 42 45 28 28 38 41 44 42 65 58 47 62 52 17 18 21 27 27 25 24 28 32 31 31 28 26 26 26 25 24 25 30 34 40 42 44 43 43 49 52 52 62 67
36 37 41 12 34 40 38 37 35 48 76 77 76 46 17 21 26 28 24 23 24 27 29 25 25 25 24 26 24 25 29 32 32 36 41 44 46 44 48 49 49 50 56 70
46 48 49 41 38 45 60 46 41 48 73 67 49 38 34 36 33 24 22 23 25 29 26 26 28 26 26 28 26 28 30 30 37 42 43 47 46 48 47 48 50 52 58 70
42 52 30 34 38 39 38 37 37 61 50 76 50 55 43 33 30 27 25 23 25 27 28 29 31 29 29 26 26 27 29 31 33 40 40 44 45 48 49 53 54 53 60 71
46 56 42 45 32 35 40 37 40 37 34 40 41 39 36 35 30 30 28 28 28 27 27 28 29 34 31 30 30 31 32 32 34 36 41 41 44 46 53 53 55 58 63 72
60 54 58 46 29 34 38 49 44 46 41 45 53 60 56 48 43 40 35 29 28 29 28 28 33 34 33 32 32 34 33 33 36 39 36 38 41 48 51 54 58 61 65 76
60 67 70 62 34 51 34 33 36 41 43 86 81 62 48 42 39 37 26 28 27 31 31 30 33 36 36 34 32 31 34 39 41 40 41 41 45 49 52 56 60 61 66 81
57 62 70 62 34 20 11 37 41 44 50 63 44 45 43 39 38 30 28 28 30 33 33 34 33 36 33 32 31 35 38 40 43 43 47 48 50 55 58 61 63 65 76 88
54 62 60 54 56 41 20 36 28 28 40 43 37 38 39 42 53 42 32 32 33 32 33 36 37 35 32 32 37 42 45 42 44 47 53 53 54 62 65 63 67 71 83 90
47 60 68 38 59 32 21 29 27 42 44 35 34 36 40 47 44 38 34 31 30 33 36 37 38 35 34 38 42 49 49 54 52 58 64 60 61 63 63 64 72 83 91 96
45 60 55 56 66 48 27 28 45 35 35 36 35 38 41 42 42 39 35 33 37 36 36 37 38 39 41 44 48 62 71 67 72 74 74 64 63 64 62 73 86 92 97 94
51 46 58 54 36 27 29 34 33 38 41 41 40 38 39 43 42 39 37 34 31 35 36 34 42 51 51 49 59 80 84 84 87 86 82 75 68 66 68 86 92 98 95 92
28 34 53 56 36 35 36 36 37 40 46 47 44 42 41 42 41 39 33 32 36 36 36 41 49 55 59 63 76 90 92 92 92 94 91 80 76 72 81 86 94 96 97 93
36 40 46 43 36 47 45 43 47 51 49 47 44 42 43 42 41 38 34 38 39 37 43 46 54 62 76 90 95 92 87 84 91 92 89 84 73 82 92 94 94 96 98 87
38 41 60 67 52 69 67 56 57 59 52 44 44 44 41 40 39 36 42 41 39 46 46 55 60 73 94 95 95 92 86 84 89 92 87 78 86 92 96 96 98 96 96 92
Wind_Speed
6 7 10 10 9 6 8 11 16 14 11 16 14 19 18 2 3 4 3 4 4 5 4 6 7 8 10 11 12 14 14 14 11 9 10 10 10 11 9 10 12 12 10 10
3 8 8 4 6 8 10 12 10 7 8 15 17 21 5 0 1 3 4 4 5 5 7 7 9 11 13 13 14 14 15 14 11 9 9 9 10 11 11 9 10 14 12 11
7 6 5 7 7 9 4 7 10 14 19 21 14 14 7 4 3 2 1 4 5 7 9 9 10 10 10 13 13 13 14 14 12 13 9 9 10 9 10 10 11 9 14 13
6 6 8 7 6 7 8 8 13 16 18 11 10 10 4 3 3 4 5 7 7 7 9 10 12 12 11 12 11 11 11 13 12 14 11 13 11 12 11 11 11 12 14 14
7 8 8 6 6 7 5 14 15 20 16 9 5 7 5 4 3 8 11 10 9 10 10 14 16 12 11 10 10 10 11 11 11 12 12 11 12 11 11 11 15 15 12 14
4 2 4 6 5 3 12 12 21 4 7 7 8 4 7 6 8 9 11 12 12 14 15 17 15 12 12 9 9 9 10 10 10 11 13 14 14 15 13 14 13 11 11 10
3 2 3 8 8 2 13 12 8 6 5 10 4 11 14 9 6 6 11 17 15 15 18 18 18 12 13 11 11 10 10 11 10 12 13 13 14 15 15 16 12 15 12 10
8 1 6 8 5 7 6 8 4 8 10 18 17 10 5 7 3 5 16 17 19 21 19 18 17 11 13 12 11 10 11 11 11 11 13 12 13 11 12 14 14 12 12 12
10 1 5 4 6 5 5 6 7 12 14 11 8 11 10 4 15 21 15 20 22 21 20 19 15 13 15 13 12 11 11 11 11 11 11 13 13 15 15 18 16 12 14 11
4 9 3 6 5 3 3 5 5 5 7 15 12 21 12 15 23 20 20 22 21 19 20 17 15 15 14 12 12 13 14 13 12 11 11 11 14 15 16 16 18 16 14 14
5 3 1 6 4 12 7 5 5 6 8 12 15 8 18 23 18 18 23 20 18 18 16 15 13 12 12 11 12 13 14 16 13 12 12 13 14 15 16 17 17 17 17 17
5 6 8 12 9 4 1 3 5 7 15 14 15 18 15 14 20 20 18 17 16 15 15 13 13 14 14 15 15 15 16 16 15 13 13 14 14 15 16 17 18 18 16 18
5 2 9 3 7 5 4 11 15 15 10 19 17 15 18 23 21 20 18 17 14 14 14 14 14 15 16 17 18 16 15 15 15 14 13 14 15 15 17 17 18 17 16 15
5 6 10 10 17 16 18 22 17 16 11 17 20 22 21 19 18 18 17 17 16 14 15 16 15 17 17 17 17 16 16 15 14 13 14 15 16 15 18 18 18 18 15 15
4 8 11 13 18 20 21 22 21 15 18 15 20 21 19 17 17 16 17 17 17 16 17 16 17 17 17 17 17 17 16 15 14 15 16 16 16 16 18 17 17 18 16 14
6 5 13 15 12 11 18 19 12 12 14 14 16 18 13 16 16 17 19 18 18 18 18 17 18 18 18 18 18 18 17 15 14 16 16 17 17 18 17 18 17 17 16 14
5 4 7 8 14 18 16 4 12 11 13 13 11 14 19 19 19 20 22 19 15 17 17 19 18 18 18 19 18 18 18 16 14 14 16 17 18 18 17 18 16 17 16 14
4 4 4 10 16 10 6 5 10 14 13 6 11 16 17 19 20 20 16 16 16 18 19 18 17 18 19 19 19 18 17 16 15 16 18 18 18 18 17 16 16 16 14 15
4 4 5 6 11 20 15 7 14 19 20 6 18 21 21 23 21 14 17 17 19 20 18 16 17 18 20 20 19 18 18 17 18 19 17 17 17 17 17 16 16 15 14 13
3 4 5 9 6 9 7 6 14 22 18 12 21 22 23 23 15 16 25 24 20 18 17 17 19 20 20 20 19 17 18 20 21 18 17 17 15 15 16 16 15 14 12 12
6 6 6 7 8 12 14 9 19 12 15 25 21 22 20 18 17 24 23 21 19 19 20 19 19 19 20 20 18 20 21 19 19 15 13 14 13 13 15 14 13 12 11 4
5 5 4 5 8 7 8 21 15 20 23 23 23 21 21 22 23 23 22 21 22 22 20 20 19 19 20 20 19 17 17 16 13 12 13 14 11 11 11 13 11 13 3 13
5 5 8 6 8 21 22 18 19 21 20 19 20 21 21 22 23 22 20 21 21 21 19 19 18 20 18 20 16 18 16 15 13 12 13 11 12 11 10 9 10 4 5 12
6 9 8 13 6 18 22 20 18 17 19 20 20 20 20 21 21 21 19 19 18 19 20 19 20 21 21 17 17 17 16 14 12 11 10 8 9 9 7 7 6 5 4 9
10 8 12 16 18 22 20 16 20 21 21 20 19 19 19 18 20 19 18 18 18 19 18 19 20 19 21 19 19 17 16 13 10 9 8 7 6 6 6 3 5 7 5 6
3 8 7 13 23 18 23 25 26 22 20 17 17 19 18 16 17 16 15 17 18 19 20 18 20 21 20 19 20 18 16 11 8 6 4 4 3 4 2 7 10 19 16 17
Wind_Direction
34 63 43 23 24 350 315 304 304 321 338 323 312 299 303 44 122 111 87 58 49 35 21 17 9 5 357 359 356 350 345 344 340 338 333 329 325 324 317 326 320 318 314 303
120 68 24 5 5 336 323 315 343 306 329 319 309 301 323 78 134 34 34 42 25 11 10 13 8 1 356 352 355 349 349 345 343 337 330 320 312 311 309 305 310 317 312 307
46 44 352 357 355 352 22 3 334 308 314 291 324 286 160 147 136 90 27 346 357 360 352 357 348 344 341 350 349 345 346 343 343 345 336 331 321 311 310 310 311 313 310 300
59 24 8 357 69 349 317 348 313 305 317 317 14 297 135 147 149 166 356 5 360 355 339 336 333 330 340 345 340 345 343 341 344 340 337 337 326 323 324 311 309 309 307 303
56 11 14 36 0 338 341 323 297 294 289 297 135 263 107 134 208 14 11 2 351 338 330 328 322 316 322 332 332 337 336 342 350 350 348 340 335 319 314 311 310 310 305 306
55 83 37 349 337 358 321 302 291 225 258 245 104 313 286 25 2 5 15 355 339 330 320 318 315 301 301 315 317 325 327 334 347 345 344 343 340 333 325 316 307 305 306 298
329 128 100 11 326 177 351 339 322 295 275 319 96 298 274 58 40 1 349 339 335 330 319 310 304 305 303 304 310 315 321 319 327 332 335 338 337 332 328 324 310 308 301 297
346 256 6 5 5 308 340 354 301 295 312 306 316 261 60 46 11 341 321 341 330 330 326 317 306 302 313 293 293 298 306 310 314 321 326 327 331 332 324 329 311 299 296 300
337 284 352 1 334 313 38 308 0 283 275 286 243 272 258 210 340 339 338 336 328 326 322 318 314 295 306 299 287 299 304 301 304 309 316 318 326 327 327 324 315 299 298 291
66 288 57 325 289 160 352 343 264 222 277 292 293 305 305 338 327 328 328 329 325 326 327 324 322 318 314 309 298 298 299 300 298 301 305 313 320 323 324 321 317 305 298 295
338 214 118 310 305 320 316 269 226 291 278 292 303 287 343 318 328 324 322 323 322 326 330 335 340 337 330 322 321 319 315 314 308 306 308 308 317 321 325 317 312 311 304 301
19 305 280 290 330 290 288 314 282 279 288 276 283 282 313 313 315 323 320 319 318 323 329 330 331 332 334 332 329 325 325 324 318 311 302 306 316 319 323 316 315 317 304 301
14 175 301 254 165 179 310 301 291 278 267 265 283 289 310 313 316 319 324 325 320 325 325 327 330 330 330 327 323 327 331 334 328 315 307 309 315 321 320 319 316 310 307 306
266 247 244 271 297 310 298 293 290 283 276 288 281 295 301 323 319 327 328 328 323 319 320 325 328 327 327 326 326 327 327 329 326 315 310 311 316 317 318 321 313 315 312 304
354 268 282 287 288 288 286 285 295 286 276 271 285 290 301 325 329 323 320 326 327 321 320 323 325 325 325 325 325 324 326 321 320 311 311 311 313 309 314 318 318 316 313 301
328 280 303 297 285 281 288 291 294 294 297 283 268 278 2 328 325 324 326 323 322 323 325 323 321 322 321 322 320 318 317 318 318 312 311 310 312 311 315 320 319 314 314 314
284 304 316 292 313 309 277 10 323 321 319 310 296 344 325 326 325 324 320 318 316 325 326 320 319 318 317 317 315 312 310 310 311 311 309 306 308 312 315 319 316 315 312 317
271 277 279 291 303 289 77 46 338 327 309 8 339 333 334 326 322 308 320 330 320 329 319 315 317 314 314 312 311 309 305 303 302 313 310 310 309 310 312 317 314 315 316 318
249 308 303 290 314 293 289 46 352 333 302 242 341 334 332 327 320 314 348 334 318 313 308 309 313 314 313 310 308 306 302 300 300 309 311 312 308 310 313 315 316 313 314 308
114 284 284 319 291 291 4 333 337 327 285 6 346 322 324 323 327 320 329 323 316 309 307 312 314 311 308 309 309 306 300 302 305 313 315 309 308 309 305 312 311 311 304 304
308 306 274 294 291 277 292 317 324 288 328 327 317 314 319 315 311 309 312 315 317 312 314 317 311 308 309 309 308 301 304 307 306 305 296 296 299 302 301 308 309 306 299 285
290 312 278 282 277 290 9 320 313 310 308 307 307 308 312 311 310 313 315 316 317 317 318 315 310 308 306 306 303 303 299 300 294 288 290 291 298 299 299 306 302 300 189 112
262 240 294 272 282 304 305 301 302 306 303 307 303 306 305 307 309 314 315 318 320 321 316 316 314 307 306 306 310 306 302 301 294 285 285 288 291 294 294 303 301 314 103 112
276 254 255 304 271 303 304 302 300 304 304 304 299 299 299 301 307 310 319 321 320 319 319 318 317 314 310 318 315 303 299 290 281 277 276 279 280 288 298 298 270 86 93 120
301 303 287 287 293 319 300 313 312 308 307 306 304 297 296 302 306 314 319 321 319 320 319 323 317 316 319 318 310 305 298 291 275 267 267 270 277 286 291 287 111 94 69 137
226 313 311 305 312 304 296 309 313 307 308 312 308 310 312 311 314 319 319 319 322 324 325 324 321 320 316 313 311 308 297 279 255 239 246 264 284 289 228 99 89 81 94 105